Skip Page Navigation
NASA JPL Caltech
NASA Logo - Jet Propulsion Laboratory + View the NASA Portal
+ Center for Near-Earth Object Studies
JPL Home Earth Solar System Stars & Galaxies Technology
JPL Solar System Dynamics
BODIES ORBITS EPHEMERIDES TOOLS PHYSICAL DATA DISCOVERY FAQ SITE MAP
IMPORTANT: The SSD Announcement email list is now available. Major changes are coming in the near future, including possible hostname and/or URL changes. To be notified of such changes, subscribe to this email list.

Please visit this page for more details.


JPL Small-Body Database Browser
Search: [ help ]  
35660 (1998 QS38)
Classification: Main-belt Asteroid          SPK-ID: 2035660
Ephemeris | Orbit Diagram | Orbital Elements | Mission Design | Physical Parameters | Discovery Circumstances | Close-Approach Data ]

[ show orbit diagram ]
Orbital Elements at Epoch 2459000.5 (2020-May-31.0) TDB
Reference: JPL 25 (heliocentric ecliptic J2000)
 Element Value Uncertainty (1-sigma)   Units 
e .2162635316740602 3.6548e-08  
a 3.169958307799693 2.6375e-08 au
q 2.484411928895403 1.227e-07 au
i 13.43862616874302 6.7147e-06 deg
node 321.3721678406135 2.0407e-05 deg
peri 289.9648100286701 2.5969e-05 deg
M 10.93429456500342 1.6954e-05 deg
tp 2458937.886638394193
(2020-Mar-29.38663839)
9.6822e-05 TDB
period 2061.478227432709
5.64
2.5728e-05
7.044e-08
d
yr
n .1746319680748368 2.1795e-09 deg/d
Q 3.855504686703982 3.2079e-08 au
  Orbit Determination Parameters
   # obs. used (total)      834  
   data-arc span      9798 days (26.83 yr)  
   first obs. used      1992-07-30  
   last obs. used      2019-05-28  
   planetary ephem.      DE431  
   SB-pert. ephem.      SB431-N16  
   condition code      0  
   norm. resid. RMS      .54618  
   source      ORB  
   producer      Otto Matic  
   solution date      2020-Feb-23 03:54:21  

Additional Information
 Earth MOID = 1.50916 au 
 Jupiter MOID = 1.57028 au 
 T_jup = 3.124 
[ show covariance matrix ]

Ephemeris | Orbit Diagram | Orbital Elements | Mission Design | Physical Parameters | Discovery Circumstances | Close-Approach Data ]

Physical Parameter Table
Parameter Symbol Value Units Sigma Reference Notes
absolute magnitude H 13.8   n/a MPO347781  
diameter diameter 10.218 km 0.143 urn:nasa:pds:neowise_diameters_albedos::2.0[mainbelt] (http://adsabs.harvard.edu/abs/2011ApJ...741...68M)  
geometric albedo albedo 0.061   0.011 urn:nasa:pds:neowise_diameters_albedos::2.0[mainbelt] (http://adsabs.harvard.edu/abs/2011ApJ...741...68M)  

35660 (1998 QS38)          Discovered 1998-Aug-17 by LINEAR at Socorro
Reference: 20020227/Numbers.arcLast Updated: 2004-04-19

[ show close-approach data ]
Alternate Designations
 1998 QS38 = 1999 XT128 
Ephemeris | Orbit Diagram | Orbital Elements | Mission Design | Physical Parameters | Discovery Circumstances | Close-Approach Data ]
ABOUT SSD CREDITS/AWARDS PRIVACY/COPYRIGHT GLOSSARY LINKS
FirstGov 2020-Apr-02 20:14 UT
(server date/time)  
NASA Home Page
Site Manager:   Ryan S. Park
Webmaster  Alan B. Chamberlin